Flag for Botswana Weather past 2 weeks in Molepolole, Botswana

Now
68 °F

Sunny.


Feels Like: 68 °F
Forecast: 68 / 90 °F
Wind: 5 mph from Southeast

Location: Seretse Khama International Airport

Current Time: Dec 19, 2014 at 7:11:26 AM

Latest Report: Dec 19, 2014 at 6:00 AM


Visibility: 10 mi

Pressure: 30.01 "Hg

Humidity: 83%

Dew point: 63 °F

Location of MolepololeLocation

Historic Weather in Molepolole — Graph

°F

Molepolole temperature yesterday

Maximum temperature yesterday: 84 °F (at 5:00 PM)
Minimum temperature yesterday: 68 °F (at 12:00 AM)
Average temperature yesterday: 74 °F

Past Weeks' High & Low Weather Summary

 TemperatureHumidityPressure
High99 °F (Dec 5, 4:00 PM)100% (Dec 9, 6:00 AM)30.21 "Hg (Dec 9, 6:00 AM)
Low63 °F (Dec 9, 7:00 AM)10% (Dec 5, 3:00 PM)29.86 "Hg (Dec 15, 5:00 PM)
Average77 °F57%30.03 "Hg
* Reported Dec 4 5:00 AM — Dec 19 5:00 AM, Molepolole, Weather by CustomWeather, © 2014

Note: Actual official high and low records may vary slightly from our data, if they occured in-between our weather recording intervals... More about our weather records

Advertising

Molepolole weather history for previous 24 hours

 ConditionsComfort  
Time TempWeatherWind HumidityBarometerVisibility
5:00 AM
Dec 19
68 °FSunny.5 mph83%30.01 "Hg10 mi
12:00 AM72 °FClear.8 mph69%30.01 "Hg10 mi
11:00 PM
Dec 18
77 °FClear.8 mph61%30.01 "Hg10 mi
10:00 PM77 °FClear.8 mph61%30.01 "Hg10 mi
9:00 PM79 °FClear.6 mph54%30.01 "Hg10 mi
8:00 PM79 °FPassing clouds.5 mph48%29.98 "HgN/A
7:00 PM81 °FPassing clouds.6 mph45%29.95 "HgN/A
6:00 PM82 °FPassing clouds.7 mph45%29.92 "HgN/A
5:00 PM84 °FPassing clouds.3 mph43%29.92 "HgN/A
4:00 PM82 °FScattered clouds.5 mph51%29.95 "HgN/A
3:00 PM82 °FScattered clouds.3 mph48%29.95 "HgN/A
2:00 PM81 °FScattered clouds.6 mph54%29.98 "HgN/A
1:00 PM77 °FBroken clouds.6 mph65%30.01 "HgN/A
11:00 AM73 °FOvercast.10 mph74%30.07 "HgN/A
10:00 AM70 °FLow clouds.13 mph83%30.07 "HgN/A
9:00 AM70 °FDrizzle. Low clouds.9 mph83%30.07 "HgN/A
8:00 AM68 °FMore clouds than sun.8 mph94%30.07 "HgN/A
7:00 AM68 °FDrizzle. Low clouds.9 mph88%30.04 "HgN/A
Weather by CustomWeather, © 2014

See weather overviewHow to use our weather pages